Location: Newark
(42.0700°N, 88.0492°W)
Time: 09:41:58
(UTC+00:00)

ISS - Pass Details

Date: 02 October 2019
Orbit: 411 x 421 km, 51.6° (Epoch: 20 October)

Event Time Altitude Azimuth Distance (km) Brightness Sun altitude
Rises 00:42:52 0° 305° (NW) 2,346 1.2 -13.6°
Reaches altitude 10° 00:45:26 10° 325° (NW) 1,483 -0.4 -14.1°
Maximum altitude 00:47:48 18° 11° (N) 1,099 -1.7 -14.5°
Enters shadow 00:49:09 15° 40° (NE) 1,237 -1.7 -14.7°
